Regional Weather Roundup
Issued by NWS

Home | Current Version | Previous Version | Graphics & Text | Print | Product List | Glossary On
Versions: 1 2 3 4 5 6 7 8 9 10 11 12 13 14 15 16 17 18 19 20 21 22 23 24 25 26 27 28 29 30 31 32 33 34 35 36 37 38 39 40 41 42 43 44 45 46 47 48 49 50
000
ASUS43 KMKX 270000
RWRWI

WISCONSIN REGIONAL WEATHER ROUNDUP
NATIONAL WEATHER SERVICE MILWAUKEE/SULLIVAN WI
700 PM CDT THU MAY 26 2016

NOTE: "FAIR" INDICATES FEW OR NO CLOUDS BELOW 12,000 FEET WITH NO
SIGNIFICANT WEATHER AND/OR OBSTRUCTIONS TO VISIBILITY.

WIZ001-002-006>008-014>016-023>028-270100-
NORTHWEST WISCONSIN

CITY           SKY/WX    TMP DP  RH WIND       PRES   REMARKS
SUPERIOR ARPT  FOG       46  46  99 CALM      29.78R VSB 1/2
ASHLAND        SUNNY     63  59  87 NE10      29.78R
6HR MIN TEMP:  58; 6HR MAX TEMP:  69;

HAYWARD        PTSUNNY   77  54  44 S8        29.77R
6HR MIN TEMP:  73; 6HR MAX TEMP:  79;

SIREN          SUNNY     78  47  33 W8        29.77R
CUMBERLAND     SUNNY     73  50  43 SW10      29.80R
RICE LAKE      SUNNY     78  45  31 SW8       29.81R
CHETEK         SUNNY     78  52  41 SW6       29.80R
LADYSMITH      SUNNY     77  56  48 SW7       29.80R
EAU CLAIRE     NOT AVBL
MENOMONIE      CLOUDY    79  51  37 S10       29.80R
NEW RICHMOND   CLOUDY    76  48  37 W9        29.82R
OSCEOLA        CLOUDY    77  54  44 SW9       29.83R
$$

WIZ003>005-009-010-017-018-270100-
NORTH CENTRAL WISCONSIN

CITY           SKY/WX    TMP DP  RH WIND       PRES   REMARKS
MANITOWISH WTR NOT AVBL
ARBOR VITAE    MOSUNNY   73  60  65 CALM      29.78S
WOODRUFF       MOSUNNY   73  60  65 CALM      29.78S
RHINELANDER    PTSUNNY   73  57  57 SW6       29.82R
6HR MIN TEMP:  64; 6HR MAX TEMP:  76;

EAGLE RIVER      N/A     73  55  53 CALM      29.79S
LAND O LAKES   LGT RAIN  70  60  72 CALM      29.79F
PHILLIPS       MOSUNNY   74  58  55 SW10      29.80R
6HR MIN TEMP:  71; 6HR MAX TEMP:  76;

TOMAHAWK       SUNNY     74  55  52 SW6       29.80S
MEDFORD        SUNNY     74  60  60 SW8       29.83R
MERRILL        SUNNY     75  57  53 SW9       29.83R
$$

WIZ029-030-035-036-043>047-270100-
CENTRAL WISCONSIN

CITY           SKY/WX    TMP DP  RH WIND       PRES   REMARKS
WAUSAU         MOSUNNY   77  57  50 SW9       29.82R
6HR MIN TEMP:  72; 6HR MAX TEMP:  80;

MOSINEE        MOSUNNY   75  57  53 SW5       29.85R
MARSHFIELD     SUNNY     75  59  57 SW6       29.83R
6HR MIN TEMP:  72; 6HR MAX TEMP:  79;

STEVENS POINT  SUNNY     76  56  49 W7        29.83R
WAUPACA        MOSUNNY   82  56  40 W6        29.81R HX  81
WAUTOMA        MOSUNNY   79  59  50 W7        29.84R HX  80
6HR MIN TEMP:  76; 6HR MAX TEMP:  82;

WISC RAPIDS    SUNNY     78  54  43 W8        29.84R
6HR MIN TEMP:  75; 6HR MAX TEMP:  82;

CAMP DOUGLAS   NOT AVBL
$$

WIZ011>013-019>022-031-037>040-048>050-270100-
NORTHEAST WISCONSIN

CITY           SKY/WX    TMP DP  RH WIND       PRES   REMARKS
ANTIGO         MOSUNNY   73  59  61 W7        29.83R
SHAWANO        SUNNY     79  56  45 W6        29.82R HX  80
6HR MIN TEMP:  74; 6HR MAX TEMP:  81;

OCONTO         PTSUNNY   68  67  98 E9        29.79R
STURGEON BAY   NOT AVBL
GREEN BAY      SUNNY     80  58  46 W7        29.81R HX  80
6HR MIN TEMP:  76; 6HR MAX TEMP:  81;

MANITOWOC      NOT AVBL
APPLETON       PTSUNNY   79  55  44 W6        29.81R
CLINTONVILLE   SUNNY     79  52  38 NW7       29.80R
OSHKOSH        SUNNY     79  57  46 W5        29.82R HX  80
6HR MIN TEMP:  77; 6HR MAX TEMP:  81;

$$

WIZ032>034-041-042-053>061-270100-
SOUTHWEST WISCONSIN

CITY           SKY/WX    TMP DP  RH WIND       PRES   REMARKS
LA CROSSE      CLOUDY    79  58  48 W5        29.82R HX  80
6HR MIN TEMP:  77; 6HR MAX TEMP:  84;

SPARTA         CLOUDY    79  56  45 SW5       29.83R
VIROQUA        CLOUDY    76  59  55 W5        29.85R
BOSCOBEL       PTSUNNY   80  61  52 CALM      29.84R HX  81
6HR MIN TEMP:  80; 6HR MAX TEMP:  86;

PRAIRIE DU CHI CLOUDY    79  56  45 CALM      29.83R HX  80
PLATTEVILLE    PTSUNNY   80  56  43 W3        29.84R HX  80
$$

WIZ056-057-062-063-064-067-068-270100-
SOUTH CENTRAL WISCONSIN

CITY           SKY/WX    TMP DP  RH WIND       PRES   REMARKS
REEDSBURG      CLOUDY    78  58  50 W8        29.83R
BARABOO/DELLS  CLOUDY    79  54  41 W6        29.84R
LONE ROCK      NOT AVBL
MINERAL POINT  PTSUNNY   79  52  38 W3        29.86R
MADISON        PTSUNNY   80  53  39 CALM      29.84R HX  80
6HR MIN TEMP:  78; 6HR MAX TEMP:  84;

MIDDLETON      SUNNY     78  55  44 W6        29.84R
WATERTOWN      SUNNY     81  57  44 SW6       29.82R HX  81
MONROE         MOSUNNY   81  52  36 SW6       29.84R HX  80
JANESVILLE     PTSUNNY   82  54  36 W8        29.83R HX  81
$$

WIZ051-052-058>065-066-070>072-270100-
SOUTHEAST WISCONSIN

CITY           SKY/WX    TMP DP  RH WIND       PRES   REMARKS
MILWAUKEE      PTSUNNY   83  55  38 W8        29.83R HX  82
6HR MIN TEMP:  78; 6HR MAX TEMP:  85;

WAUKESHA       SUNNY     79  55  44 W6        29.85R
MILWAUKEE/TIMM SUNNY     82  52  34 W6        29.83R HX  81
RACINE         MOSUNNY   76  60  57 SE5       29.85R
6HR MIN TEMP:  76; 6HR MAX TEMP:  83;

BURLINGTON     SUNNY     81  57  44 W3        29.83R HX  81
KENOSHA        SUNNY     80  63  55 SW7       29.84R HX  81
6HR MIN TEMP:  79; 6HR MAX TEMP:  83;

FOND DU LAC    SUNNY     80  56  43 W6        29.83R HX  80
6HR MIN TEMP:  78; 6HR MAX TEMP:  82;

SHEBOYGAN      SUNNY     80  59  48 W5        29.82R HX  81
6HR MIN TEMP:  80; 6HR MAX TEMP:  83;

WEST BEND      MOSUNNY   81  54  39 W6        29.83R HX  80
JUNEAU         SUNNY     80  57  46 W3        29.84R HX  80
$$

LSZ147-162-270100-
LAKE SUPERIOR

STATION/POSITION TIME  TEMP    WIND        PRES    WAVE
                       AIR SEA DIR/SP/G            HT/PER
                 (UTC) (F)     (DEG/KT/KT) (MB)    (FT/S)
W MID LAKE BUOY  2250   40 38  320/  4/  6 1010.0F   1/ 4
DEVILS ISLAND    2300   44      30/  6/  6 1009.7F
SAXON HARBOR     2340   49      40/  6/  8 1007.5F
$$

LMZ867-665-643>646-270100-
LAKE MICHIGAN

STATION/POSITION TIME  TEMP    WIND        PRES    WAVE
                       AIR SEA DIR/SP/G            HT/PER
                 (UTC) (F)     (DEG/KT/KT) (MB)    (FT/S)
CHAMBERS ISLAND  2300   64      30/ 10/ 11 1009.1
N MID LAKE BUOY  2250   48 45  250/  6/  8 1010.0R   2/ 4
NORTHPORT PIER   2300   60     320/  5/ 16 1009.1F
SISTER BAY       2220   64     360/ 10/ 11   N/A
ALGOMA LAKESHORE 2317          330/ 10/ 16   N/A
KEWAUNEE LAKESHO 2300          290/  5/  9 1008.2F
SHEBOYGAN LAKESH 2300   52     150/  5/  6 1009.4F
PORT WASHINGTON  2340          190/  5/  6 1010.5R
S MID LAKE BUOY  2250   57 50  140/  8/  8 1009.7F   0
KENOSHA   LAKESH 2300   63     160/ 10/ 13 1009.1F
$$

TC  - TEMPERATURE IN CELSIUS
VSB - VISIBILITY IN STATUTE MILES
WCI - WIND CHILL INDEX
HX  - HEAT INDEX





USA.gov is the U.S. government's official web portal to all federal, state and local government web resources and services.